| time (UTC) | temp F | wind direction | speed MPH | gust MPH | rain 1hr in | rain 24hr in | rain mn in | humidity % | barometer mb |
| 20260506210008 | 81 | 126 | 6.0 | 9.0 | 0.00 | 0.00 | 0.00 | 89 | 1009.0 |
| 20260506204508 | 81 | 128 | 5.0 | 8.0 | 0.00 | 0.00 | 0.00 | 89 | 1009.1 |
| 20260506203006 | 82 | 120 | 3.0 | 7.0 | 0.00 | 0.00 | 0.00 | 89 | 1009.3 |
| 20260506201508 | 81 | 115 | 4.0 | 8.0 | 0.00 | 0.00 | 0.00 | 90 | 1009.6 |
| 20260506200002 | 80 | 139 | 8.0 | 11.0 | 0.00 | 0.00 | 0.00 | 90 | 1009.7 |
| 20260506194502 | 80 | 116 | 3.0 | 7.0 | 0.00 | 0.00 | 0.00 | 90 | 1009.8 |
| 20260506193001 | 81 | 94 | 3.0 | 7.0 | 0.00 | 0.00 | 0.00 | 90 | 1009.9 |
| 20260506191601 | 81 | 80 | 3.0 | 9.0 | 0.00 | 0.00 | 0.00 | 90 | 1010.1 |
| 20260506190100 | 81 | 90 | 6.0 | 9.0 | 0.00 | 0.00 | 0.00 | 89 | 1010.2 |
| 20260506184558 | 82 | 81 | 3.0 | 7.0 | 0.00 | 0.00 | 0.00 | 90 | 1010.2 |
| 20260506183057 | 82 | 84 | 4.0 | 6.0 | 0.00 | 0.00 | 0.00 | 90 | 1010.3 |
| 20260506181554 | 81 | 88 | 4.0 | 7.0 | 0.00 | 0.00 | 0.00 | 92 | 1010.4 |
| 20260506180100 | 80 | 107 | 2.0 | 4.0 | 0.00 | 0.00 | 0.00 | 93 | 1010.4 |
| 20260506174547 | 79 | 134 | 5.0 | 8.0 | 0.00 | 0.00 | 0.00 | 93 | 1010.7 |
| 20260506173053 | 79 | 159 | 7.0 | 10.0 | 0.00 | 0.00 | 0.00 | 93 | 1010.8 |
| 20260506171552 | 79 | 163 | 6.0 | 12.0 | 0.00 | 0.00 | 0.00 | 93 | 1010.8 |
| 20260506170044 | 79 | 165 | 9.0 | 11.0 | 0.00 | 0.00 | 0.00 | 93 | 1010.5 |
| 20260506164543 | 79 | 161 | 6.0 | 9.0 | 0.00 | 0.00 | 0.00 | 92 | 1010.6 |
| 20260506163047 | 79 | 171 | 7.0 | 14.0 | 0.00 | 0.00 | 0.00 | 92 | 1010.5 |
| 20260506161552 | 79 | 163 | 8.0 | 10.0 | 0.00 | 0.00 | 0.00 | 92 | 1010.4 |
| 20260506160039 | 79 | 155 | 8.0 | 12.0 | 0.00 | 0.00 | 0.00 | 91 | 1010.0 |
| 20260506154538 | 79 | 153 | 10.0 | 16.0 | 0.00 | 0.00 | 0.00 | 90 | 1009.9 |
| 20260506153038 | 79 | 175 | 12.0 | 16.0 | 0.00 | 0.00 | 0.00 | 91 | 1009.8 |
| 20260506151534 | 79 | 166 | 10.0 | 19.0 | 0.00 | 0.00 | 0.00 | 91 | 1009.4 |
| 20260506150034 | 79 | 175 | 11.0 | 13.0 | 0.00 | 0.00 | 0.00 | 91 | 1009.5 |
| 20260506144531 | 79 | 128 | 10.0 | 17.0 | 0.00 | 0.00 | 0.00 | 91 | 1009.3 |
| 20260506143030 | 79 | 150 | 9.0 | 15.0 | 0.00 | 0.00 | 0.00 | 91 | 1009.5 |
| 20260506141530 | 79 | 140 | 9.0 | 14.0 | 0.00 | 0.00 | 0.00 | 92 | 1009.5 |
| 20260506140029 | 79 | 169 | 7.0 | 10.0 | 0.00 | 0.00 | 0.00 | 92 | 1009.6 |
| 20260506134602 | 79 | 148 | 8.0 | 12.0 | 0.00 | 0.00 | 0.00 | 92 | 1009.4 |
| 20260506133028 | 78 | 154 | 7.0 | 12.0 | 0.00 | 0.00 | 0.00 | 92 | 1009.4 |
| 20260506131528 | 78 | 148 | 7.0 | 10.0 | 0.00 | 0.00 | 0.00 | 92 | 1009.3 |
| 20260506130026 | 78 | 142 | 8.0 | 11.0 | 0.00 | 0.00 | 0.00 | 92 | 1009.4 |
| 20260506124525 | 78 | 130 | 9.0 | 12.0 | 0.00 | 0.00 | 0.00 | 92 | 1009.2 |
| 20260506123025 | 78 | 135 | 8.0 | 10.0 | 0.00 | 0.00 | 0.00 | 92 | 1009.1 |
| 20260506121524 | 78 | 135 | 6.0 | 8.0 | 0.00 | 0.00 | 0.00 | 92 | 1009.2 |
| 20260506120023 | 78 | 131 | 8.0 | 10.0 | 0.00 | 0.00 | 0.00 | 92 | 1008.9 |
| 20260506114532 | 78 | 134 | 6.0 | 10.0 | 0.00 | 0.00 | 0.00 | 92 | 1008.9 |
| 20260506113024 | 78 | 130 | 7.0 | 9.0 | 0.00 | 0.00 | 0.00 | 91 | 1008.8 |
| 20260506111520 | 78 | 130 | 4.0 | 7.0 | 0.00 | 0.00 | 0.00 | 91 | 1008.9 |
| 20260506110020 | 78 | 130 | 5.0 | 8.0 | 0.00 | 0.00 | 0.00 | 91 | 1008.9 |
| 20260506104520 | 78 | 141 | 5.0 | 7.0 | 0.00 | 0.00 | 0.00 | 91 | 1008.8 |
| 20260506103025 | 78 | 144 | 5.0 | 7.0 | 0.00 | 0.00 | 0.00 | 91 | 1008.9 |
| 20260506101518 | 78 | 150 | 4.0 | 8.0 | 0.00 | 0.00 | 0.00 | 90 | 1008.9 |
| 20260506100029 | 78 | 155 | 4.0 | 8.0 | 0.00 | 0.00 | 0.00 | 90 | 1008.9 |
| 20260506094518 | 78 | 148 | 7.0 | 11.0 | 0.00 | 0.00 | 0.00 | 90 | 1008.7 |
| 20260506093016 | 78 | 154 | 5.0 | 9.0 | 0.00 | 0.00 | 0.00 | 90 | 1008.6 |
| 20260506091515 | 78 | 156 | 6.0 | 12.0 | 0.00 | 0.00 | 0.00 | 90 | 1008.6 |
| 20260506090014 | 78 | 149 | 6.0 | 12.0 | 0.00 | 0.00 | 0.00 | 90 | 1008.4 |
| 20260506084514 | 78 | 159 | 8.0 | 15.0 | 0.00 | 0.00 | 0.00 | 90 | 1008.3 |
| 20260506083012 | 78 | 161 | 7.0 | 11.0 | 0.00 | 0.00 | 0.00 | 90 | 1008.6 |
| 20260506081519 | 78 | 137 | 6.0 | 10.0 | 0.00 | 0.00 | 0.00 | 91 | 1008.6 |
| 20260506073007 | 79 | 158 | 10.0 | 16.0 | 0.00 | 0.00 | 0.00 | 89 | 1008.7 |
| 20260506071509 | 79 | 164 | 13.0 | 19.0 | 0.00 | 0.00 | 0.00 | 90 | 1008.9 |
| 20260506061559 | 79 | 144 | 10.0 | 14.0 | 0.00 | 0.00 | 0.00 | 90 | 1009.5 |
| 20260506044550 | 79 | 146 | 10.0 | 17.0 | 0.00 | 0.00 | 0.00 | 90 | 1009.6 |
| 20260506043049 | 79 | 144 | 12.0 | 16.0 | 0.00 | 0.00 | 0.00 | 90 | 1009.4 |
| 20260506041549 | 79 | 153 | 11.0 | 21.0 | 0.00 | 0.00 | 0.00 | 90 | 1009.5 |
| 20260506040049 | 79 | 144 | 15.0 | 20.0 | 0.00 | 0.00 | 0.00 | 90 | 1009.2 |
| 20260506034551 | 79 | 142 | 16.0 | 21.0 | 0.00 | 0.00 | 0.00 | 90 | 1009.3 |
| 20260506033047 | 79 | 163 | 15.0 | 20.0 | 0.00 | 0.00 | 0.00 | 90 | 1009.0 |
| 20260506031547 | 79 | 141 | 14.0 | 21.0 | 0.00 | 0.00 | 0.00 | 90 | 1008.8 |
| 20260506030046 | 79 | 159 | 15.0 | 21.0 | 0.00 | 0.00 | 0.00 | 90 | 1008.5 |
| 20260506024552 | 79 | 163 | 14.0 | 20.0 | 0.00 | 0.00 | 0.00 | 90 | 1008.2 |
| 20260506023045 | 79 | 132 | 16.0 | 21.0 | 0.00 | 0.00 | 0.00 | 89 | 1008.3 |
| 20260506021544 | 79 | 159 | 16.0 | 20.0 | 0.00 | 0.00 | 0.00 | 89 | 1008.1 |
| 20260506020144 | 79 | 167 | 13.0 | 20.0 | 0.00 | 0.00 | 0.00 | 89 | 1008.1 |
| 20260506014544 | 79 | 175 | 17.0 | 21.0 | 0.00 | 0.00 | 0.00 | 89 | 1007.9 |
| 20260506013043 | 79 | 156 | 17.0 | 21.0 | 0.00 | 0.00 | 0.00 | 88 | 1007.7 |
| 20260506011604 | 79 | 157 | 16.0 | 21.0 | 0.00 | 0.00 | 0.00 | 88 | 1007.5 |
| 20260506010043 | 79 | 161 | 16.0 | 22.0 | 0.00 | 0.00 | 0.00 | 88 | 1007.1 |
| 20260506004557 | 79 | 151 | 16.0 | 21.0 | 0.00 | 0.00 | 0.00 | 89 | 1007.0 |
| 20260506003041 | 79 | 165 | 13.0 | 24.0 | 0.00 | 0.00 | 0.00 | 88 | 1006.9 |
| 20260506001544 | 80 | 145 | 15.0 | 23.0 | 0.00 | 0.00 | 0.00 | 88 | 1007.0 |
| 20260506000109 | 80 | 140 | 15.0 | 20.0 | 0.00 | 0.00 | 0.00 | 87 | 1007.0 |
| 20260505234639 | 80 | 157 | 14.0 | 22.0 | 0.00 | 0.00 | 0.00 | 87 | 1007.0 |
| 20260505233038 | 80 | 147 | 16.0 | 22.0 | 0.00 | 0.00 | 0.00 | 86 | 1007.0 |
| 20260505231537 | 80 | 172 | 14.0 | 19.0 | 0.00 | 0.00 | 0.00 | 86 | 1007.0 |
| 20260505230136 | 81 | 158 | 16.0 | 26.0 | 0.00 | 0.00 | 0.00 | 85 | 1006.9 |
| 20260505224539 | 81 | 155 | 19.0 | 24.0 | 0.00 | 0.00 | 0.00 | 84 | 1006.9 |
| 20260505223038 | 81 | 167 | 19.0 | 25.0 | 0.00 | 0.00 | 0.00 | 84 | 1006.9 |
| 20260505221533 | 81 | 145 | 17.0 | 22.0 | 0.00 | 0.00 | 0.00 | 84 | 1007.0 |
| 20260505220031 | 81 | 148 | 18.0 | 25.0 | 0.00 | 0.00 | 0.00 | 83 | 1006.9 |
| 20260505214530 | 81 | 175 | 16.0 | 22.0 | 0.00 | 0.00 | 0.00 | 83 | 1007.1 |
| 20260505213027 | 81 | 144 | 17.0 | 24.0 | 0.00 | 0.00 | 0.00 | 83 | 1007.5 |
| 20260505211529 | 81 | 167 | 19.0 | 25.0 | 0.00 | 0.00 | 0.00 | 83 | 1007.7 |